PSLV R/B

Satellite information

Favourite Embed

Satellite Type and Status

ROCKET BODYIN ORBIT

Key statistics

Satellite PSLV R/B at a glance.

Uptime

10638

Days in orbit

Revolutions

≈ 14.2

Per day

Orbit

SSO

Sun Synchronous Orbit

Inclination

99.1

Latest

Satellite identification and parameters

Extended collection of information and parameters for PSLV R/B.

Object identification

Identified? True

Debris? False

Object name: PSLV R/B

International designator: 1996-017B

Object number (NORAD): 23828

Object ID (CCSDS): 23828

Country: INDIA (IND)

Current information (Y/N): Y

RCS size: LARGE

Orbital parameters

Period: 101.225 minutes

Inclination: 99.0503 deg

SMA: 7194.821 km

Apoapsis: 841.587 km

Periapsis: 791.786 km

RAAN: 126.6012 deg

Eccentricy: 0.0034609

Argument of periapsis: 81.2947 deg

Mean anomaly: 279.2148 deg

Mean motion: 14.22567079 rev/day

Mean motion (dot): 0.00000147 rev/day2

B* drag term: 0.000086296 1/REarth

Two-line elements (TLE)

Creation date: May 6, 2025, 3:54 a.m.

Reference frame: TEME

Reference center: EARTH

Epoch: May 5, 2025, 6:09 p.m. UTC

TLE line 0: 0 PSLV R/B

TLE line 1: 1 23828U 96017B 25125.75669120 .00000147 00000-0 86296-4 0 9994

TLE line 2: 2 23828 99.0503 126.6012 0034609 81.2947 279.2148 14.22567079511151

Live tracking on map

Real-time ground track for satellite PSLV R/B.

In-orbit conjunctions

A list of the most updated potential collisions computed for object PSLV R/B.

Target Orbit TCA Probability of collision Miss distance Type
CZ-6A DEB LEO 2025-03-04 18:33:34 0.001445856 77.0 (m) DEBRIS
CZ-6A DEB LEO 2025-02-27 09:25:00 0.0001276977 535.0 (m) DEBRIS
SL-18 DEB LEO 2025-01-06 16:34:06 0.0001397031 546.0 (m) DEBRIS
METEOR 2-8 DEB LEO 2024-08-15 13:22:01 0.0005628695 113.0 (m) DEBRIS

Associated space launch

IRS-P3 (Indian Remote Sensing Satellite) was an Indian experimental earth observation satellite.

PSLV R/B was lifted into orbit during the mission ‘PSLV | IRS-P3’, on board a PSLV space rocket.

The launch took place on March 21, 1996, 4:53 a.m. from Satish Dhawan Space Centre First Launch Pad.

For more information about the launch, click the button.

Launch to space PSLV | IRS-P3
PSLV | IRS-P3

Agency: N/A

Status: Launch Successful

Launch date: March 21, 1996, 4:53 a.m. UTC

Rocket: PSLV

Launch pad: Satish Dhawan Space Centre First Launch Pad

Location: Satish Dhawan Space Centre, India

...

Latest news about this satellite

There are no fresh news available about this satellite. Check back as we update our databases every day.


Newsletter sign-up

Weekly statistics, charts and insights to help you stay on top of the space industry.